Dewpoint
43 44 46 46 46 48 50 53 54 55 58 59 59 60 60 60 59 58 56 54 51 49
42 44 47 49 50 50 50 51 51 53 53 56 58 59 59 59 58 58 57 55 54 52
44 46 49 48 48 48 49 49 49 50 50 52 53 56 57 57 56 56 55 55 54 51
43 45 46 44 46 47 47 46 46 47 47 47 49 51 52 52 52 52 52 51 51 48
40 41 41 40 40 42 41 39 38 38 39 40 42 43 46 46 46 47 47 46 45 42
39 39 39 39 39 38 38 37 36 35 35 36 37 39 39 40 40 41 41 40 40 39
37 37 38 38 38 38 37 36 36 36 36 36 36 36 36 37 37 36 36 36 36 36
37 37 37 37 38 38 38 37 37 37 37 37 37 37 35 35 35 35 35 35 36 36
36 36 36 36 36 37 37 38 38 38 37 36 36 37 36 34 33 33 33 32 33 34
35 35 35 36 35 35 35 35 34 35 36 36 36 36 36 34 32 31 31 31 31 31
35 35 35 34 34 34 33 33 33 33 34 36 36 36 34 32 30 30 30 30 30 29
34 34 33 33 32 32 31 30 31 32 32 32 33 31 31 29 27 27 27 28 28 28
34 33 32 32 31 32 31 30 30 29 29 29 26 25 25 27 26 23 24 25 21 22
34 33 32 32 32 31 29 28 27 28 29 29 25 26 26 23 21 18 17 17 19 23
Wind_Speed
11 9 8 7 8 8 8 9 12 12 7 6 10 11 11 10 12 12 15 18 16 16
14 12 8 8 9 8 9 9 10 11 11 12 7 8 9 9 12 12 15 17 17 16
12 11 6 10 11 10 9 10 11 11 10 9 8 6 4 4 5 5 6 7 10 9
13 12 11 15 13 9 11 13 13 12 12 11 10 9 7 5 3 1 1 0 6 6
13 12 11 15 13 14 13 14 14 14 14 14 14 13 10 9 9 7 3 1 6 7
13 14 14 14 11 12 12 12 13 14 14 13 11 12 11 9 9 9 8 8 6 4
12 13 12 11 12 11 11 12 11 11 12 13 14 13 12 11 10 11 10 9 8 5
10 11 12 13 13 13 11 10 9 11 12 12 12 10 11 11 11 12 11 12 10 8
10 10 10 9 10 11 12 12 12 13 13 13 11 14 12 12 12 11 11 11 13 13
8 8 9 10 11 12 10 11 14 14 13 13 13 15 15 14 12 12 11 11 10 10
7 8 10 11 10 9 9 11 10 13 12 11 13 14 14 15 13 12 10 9 9 8
8 8 9 10 9 9 10 11 10 9 10 12 11 13 13 13 11 10 7 5 4 4
7 8 10 10 9 8 9 10 8 9 7 8 7 10 8 6 4 5 3 2 4 6
8 9 10 9 7 7 8 8 7 5 1 3 5 8 10 9 7 5 5 5 4 3
Wind_Direction
351 349 339 335 348 9 19 24 25 10 3 290 261 251 248 236 232 220 222 221 216 222
349 345 357 42 34 17 15 4 11 25 19 17 332 283 261 256 259 234 221 224 216 211
355 358 47 43 28 15 8 12 14 23 25 14 3 356 4 357 10 312 276 237 216 198
21 31 47 52 30 14 32 31 26 22 31 32 27 16 27 35 18 43 175 239 207 178
35 38 45 53 37 41 49 42 39 38 40 39 32 27 30 27 17 5 341 160 154 168
42 40 42 44 41 50 58 55 50 48 48 48 44 41 33 36 47 48 34 25 24 50
50 45 44 41 39 43 49 60 61 60 59 53 50 46 42 44 48 61 61 63 63 56
60 53 48 44 38 36 32 48 53 58 58 58 60 60 64 66 66 69 65 52 58 63
59 53 52 51 52 50 44 42 55 58 61 58 59 62 70 76 76 75 82 80 62 48
73 78 70 66 61 56 53 53 56 54 57 60 65 69 75 78 72 73 64 61 60 62
74 74 73 77 77 76 65 60 62 59 49 59 69 75 81 82 80 78 74 77 77 68
82 88 93 92 89 85 84 77 69 58 62 65 65 69 74 81 81 82 80 78 63 51
113 114 106 101 97 93 91 91 89 81 57 76 47 62 80 93 88 79 73 35 32 40
127 122 119 119 114 118 122 114 100 96 66 23 56 53 61 63 62 62 63 53 37 9